Regional Weather Roundup
Issued by NWS

Home | Current Version | Previous Version | Graphics & Text | Print | Product List | Glossary On
Versions: 1 2 3 4 5 6 7 8 9 10 11 12 13 14 15 16 17 18 19 20 21 22 23 24 25 26 27 28 29 30 31 32 33 34 35 36 37 38 39 40 41 42 43 44 45 46 47 48 49 50
000
ASUS43 KLSX 090757
RWRMO

WEATHER SUMMARY FOR MISSOURI
NATIONAL WEATHER SERVICE SPRINGFIELD MO
200 AM CST TUE FEB 09 2016

NOTE: "FAIR" INDICATES FEW OR NO CLOUDS BELOW 12,000 FEET WITH NO
       SIGNIFICANT WEATHER AND/OR OBSTRUCTIONS TO VISIBILITY.
       CURRENT SKY AND/OR WEATHER CONDITIONS ARE NOT AVAILABLE FOR
       CHILLICOTHE AND FARMINGTON.

MOZ001>031-035>038-043-044-053-054-090900-
...NORTHERN AND WESTERN MISSOURI...

CITY           SKY/WX    TMP DP  RH WIND       PRES   REMARKS
KANSAS CTY INT CLEAR     26  14  60 NW14G26   30.03F WCI  14
LEE`S SUMMIT   CLEAR     27  16  63 NW15G22   30.03S WCI  15
ST JOSEPH      CLEAR     26  12  55 NW21G30   30.06S WCI  12
CHILLICOTHE      N/A     21  12  68 NW9G24    30.02S WCI  11

$$
MOZ066>068-077>081-088>096-101>105-090900-
...SOUTHWEST MISSOURI...

CITY           SKY/WX    TMP DP  RH WIND       PRES   REMARKS
SPRINGFIELD    CLEAR     28  14  55 NW14G23   30.00F WCI  17
JOPLIN         MOCLDY    30  18  60 W9        30.08F WCI  22

$$
MOZ032>034-039>042-045>050-055>058-069>072-090900-
...CENTRAL MISSOURI...

CITY           SKY/WX    TMP DP  RH WIND       PRES   REMARKS
COLUMBIA       NOT AVBL
JEFFERSON CITY CLOUDY    24  11  57 NW22G29   29.97S WCI   9
ROLLA          FLURRIES  23  15  71 W24G35    29.89F WCI   7
SEDALIA        CLOUDY    24  14  65 NW18G28   30.00F WCI  10

$$
MOZ051-052-059>065-090900-
...EAST CENTRAL MISSOURI...

CITY           SKY/WX    TMP DP  RH WIND       PRES   REMARKS
ST LOUIS INTL  LGT SNOW  21  15  78 NW12      29.91F WCI   9

$$
MOZ072>076-082>087-097>100-106>115-090900-
...SOUTH CENTRAL AND SOUTHEAST MISSOURI...

CITY           SKY/WX    TMP DP  RH WIND       PRES   REMARKS
CAPE GIRARDEAU CLOUDY    27  15  61 NW9       29.91S WCI  18
POPLAR BLUFF   CLOUDY    29  14  53 NW20      29.94S WCI  16
WEST PLAINS    PTCLDY    26  12  55 NW18G26   29.92F WCI  13

$$


USA.gov is the U.S. government's official web portal to all federal, state and local government web resources and services.